QPF
0.00 0.00 0.00 0.00 0.00 0.02 0.02 0.00 0.00 0.00 0.00 0.00 0.00 0.00 0.00 0.00 0.00 0.00 0.00 0.00 0.00 0.00 0.00 0.00 0.00 0.00 0.00 0.00 0.00 0.00 0.00 0.00 0.00 0.00 0.00 0.00 0.00 0.00 0.00 0.00 0.00 0.00 0.00
0.00 0.00 0.00 0.00 0.00 0.00 0.00 0.00 0.00 0.00 0.00 0.00 0.00 0.00 0.00 0.00 0.00 0.00 0.00 0.00 0.00 0.00 0.00 0.00 0.00 0.00 0.00 0.00 0.00 0.00 0.00 0.00 0.00 0.00 0.00 0.00 0.00 0.00 0.00 0.00 0.00 0.00 0.00
0.00 0.00 0.00 0.00 0.00 0.00 0.01 0.00 0.00 0.00 0.00 0.00 0.00 0.00 0.00 0.00 0.00 0.00 0.00 0.00 0.00 0.00 0.00 0.00 0.00 0.00 0.00 0.00 0.00 0.00 0.00 0.00 0.00 0.00 0.00 0.00 0.00 0.00 0.00 0.00 0.00 0.00 0.00
0.00 0.00 0.00 0.00 0.00 0.02 0.03 0.05 0.01 0.00 0.00 0.00 0.00 0.00 0.00 0.00 0.00 0.00 0.00 0.00 0.00 0.00 0.00 0.00 0.00 0.00 0.00 0.00 0.00 0.00 0.00 0.00 0.00 0.00 0.00 0.00 0.00 0.00 0.00 0.00 0.00 0.00 0.00
0.00 0.00 0.00 0.00 0.02 0.04 0.12 0.04 0.00 0.00 0.00 0.00 0.00 0.00 0.00 0.00 0.00 0.00 0.00 0.00 0.00 0.00 0.00 0.00 0.00 0.00 0.00 0.00 0.00 0.00 0.00 0.00 0.00 0.00 0.00 0.00 0.00 0.00 0.00 0.00 0.00 0.00 0.00
0.00 0.00 0.00 0.01 0.06 0.12 0.19 0.03 0.00 0.00 0.00 0.00 0.00 0.00 0.00 0.00 0.00 0.00 0.00 0.00 0.00 0.00 0.00 0.00 0.00 0.00 0.00 0.00 0.00 0.00 0.00 0.00 0.00 0.00 0.00 0.00 0.00 0.00 0.00 0.00 0.00 0.00 0.00
0.00 0.00 0.00 0.03 0.16 0.31 0.22 0.02 0.00 0.00 0.00 0.00 0.00 0.00 0.00 0.00 0.00 0.00 0.00 0.00 0.00 0.00 0.00 0.00 0.00 0.00 0.00 0.00 0.00 0.00 0.00 0.00 0.00 0.00 0.00 0.00 0.00 0.00 0.00 0.00 0.00 0.00 0.00
0.00 0.00 0.04 0.23 0.32 0.20 0.07 0.01 0.00 0.00 0.00 0.00 0.00 0.00 0.00 0.00 0.00 0.00 0.00 0.00 0.00 0.00 0.00 0.00 0.00 0.00 0.00 0.00 0.00 0.00 0.00 0.00 0.00 0.00 0.00 0.00 0.00 0.00 0.00 0.00 0.00 0.00 0.00
0.00 0.00 0.11 0.26 0.21 0.14 0.04 0.01 0.00 0.00 0.00 0.00 0.00 0.00 0.00 0.00 0.00 0.00 0.00 0.00 0.00 0.00 0.00 0.00 0.00 0.00 0.00 0.00 0.00 0.00 0.00 0.00 0.00 0.00 0.00 0.00 0.00 0.00 0.00 0.00 0.00 0.00 0.00
0.00 0.00 0.07 0.06 0.06 0.06 0.01 0.01 0.00 0.01 0.01 0.00 0.00 0.00 0.00 0.00 0.00 0.00 0.00 0.00 0.00 0.00 0.00 0.00 0.00 0.00 0.00 0.00 0.00 0.00 0.00 0.00 0.00 0.00 0.00 0.00 0.00 0.00 0.00 0.00 0.00 0.00 0.00
0.08 0.17 0.20 0.29 0.27 0.08 0.00 0.01 0.06 0.09 0.05 0.01 0.00 0.00 0.00 0.00 0.00 0.00 0.00 0.00 0.00 0.00 0.00 0.00 0.00 0.00 0.00 0.00 0.00 0.00 0.00 0.00 0.00 0.00 0.00 0.00 0.00 0.00 0.00 0.00 0.00 0.00 0.00
0.32 0.23 0.28 0.27 0.19 0.02 0.01 0.04 0.08 0.09 0.03 0.00 0.00 0.00 0.00 0.00 0.00 0.00 0.00 0.00 0.00 0.00 0.00 0.00 0.00 0.00 0.00 0.00 0.00 0.00 0.00 0.00 0.00 0.00 0.00 0.00 0.00 0.00 0.00 0.00 0.00 0.00 0.00
0.13 0.14 0.17 0.11 0.02 0.00 0.02 0.03 0.03 0.03 0.01 0.00 0.00 0.00 0.00 0.00 0.00 0.00 0.00 0.00 0.00 0.00 0.00 0.00 0.00 0.00 0.00 0.00 0.00 0.00 0.00 0.00 0.00 0.00 0.00 0.00 0.00 0.00 0.00 0.00 0.00 0.00 0.00
0.02 0.05 0.07 0.06 0.03 0.02 0.03 0.06 0.06 0.01 0.00 0.00 0.00 0.00 0.00 0.00 0.00 0.00 0.00 0.00 0.00 0.00 0.00 0.00 0.00 0.00 0.00 0.00 0.00 0.00 0.00 0.00 0.00 0.00 0.00 0.00 0.00 0.00 0.00 0.00 0.00 0.00 0.00
0.00 0.00 0.01 0.02 0.06 0.11 0.08 0.03 0.00 0.00 0.00 0.00 0.00 0.00 0.00 0.00 0.00 0.00 0.00 0.00 0.00 0.00 0.00 0.00 0.00 0.00 0.00 0.00 0.00 0.00 0.00 0.00 0.00 0.00 0.00 0.00 0.00 0.00 0.00 0.00 0.00 0.00 0.00
0.00 0.00 0.00 0.03 0.05 0.06 0.02 0.00 0.00 0.00 0.00 0.00 0.00 0.00 0.00 0.00 0.00 0.00 0.00 0.00 0.00 0.00 0.00 0.00 0.00 0.00 0.00 0.00 0.00 0.00 0.00 0.00 0.00 0.00 0.00 0.00 0.00 0.00 0.00 0.00 0.00 0.00 0.00
0.00 0.00 0.00 0.01 0.02 0.01 0.00 0.00 0.00 0.00 0.00 0.00 0.00 0.00 0.00 0.00 0.00 0.00 0.00 0.00 0.00 0.00 0.00 0.00 0.00 0.00 0.00 0.00 0.00 0.00 0.00 0.00 0.00 0.00 0.00 0.00 0.00 0.00 0.00 0.00 0.00 0.00 0.00
0.00 0.00 0.00 0.01 0.01 0.00 0.00 0.00 0.00 0.00 0.00 0.00 0.00 0.00 0.00 0.00 0.00 0.00 0.00 0.00 0.00 0.00 0.00 0.00 0.00 0.00 0.00 0.00 0.00 0.00 0.00 0.00 0.00 0.00 0.00 0.00 0.00 0.00 0.00 0.00 0.00 0.00 0.00
0.02 0.02 0.02 0.01 0.01 0.00 0.00 0.00 0.00 0.00 0.00 0.00 0.00 0.00 0.00 0.00 0.00 0.00 0.00 0.00 0.00 0.00 0.00 0.00 0.00 0.00 0.00 0.00 0.00 0.00 0.00 0.00 0.00 0.00 0.00 0.00 0.00 0.00 0.00 0.00 0.00 0.00 0.00
0.01 0.08 0.03 0.02 0.01 0.00 0.00 0.00 0.00 0.00 0.00 0.00 0.00 0.00 0.00 0.00 0.00 0.00 0.00 0.00 0.00 0.00 0.00 0.00 0.00 0.00 0.00 0.00 0.00 0.00 0.00 0.00 0.00 0.00 0.00 0.00 0.00 0.00 0.00 0.00 0.00 0.00 0.00
0.03 0.04 0.03 0.01 0.00 0.00 0.00 0.00 0.00 0.00 0.00 0.00 0.00 0.00 0.00 0.00 0.00 0.00 0.00 0.00 0.00 0.00 0.00 0.00 0.00 0.00 0.00 0.00 0.00 0.00 0.00 0.00 0.00 0.00 0.00 0.00 0.00 0.00 0.00 0.00 0.00 0.00 0.00
0.01 0.02 0.01 0.01 0.00 0.01 0.00 0.00 0.00 0.00 0.00 0.00 0.00 0.00 0.00 0.00 0.00 0.00 0.00 0.00 0.00 0.00 0.00 0.00 0.00 0.00 0.00 0.00 0.00 0.00 0.00 0.00 0.00 0.00 0.00 0.00 0.00 0.00 0.00 0.00 0.00 0.00 0.00
0.01 0.02 0.02 0.03 0.05 0.02 0.00 0.00 0.00 0.00 0.00 0.00 0.00 0.00 0.00 0.00 0.00 0.00 0.00 0.00 0.00 0.00 0.00 0.00 0.00 0.00 0.00 0.00 0.00 0.00 0.00 0.00 0.00 0.00 0.00 0.00 0.00 0.00 0.00 0.00 0.00 0.00 0.00
0.03 0.07 0.08 0.07 0.10 0.06 0.01 0.00 0.00 0.00 0.00 0.00 0.00 0.00 0.00 0.00 0.00 0.00 0.00 0.00 0.00 0.00 0.00 0.00 0.00 0.00 0.00 0.00 0.00 0.00 0.00 0.00 0.00 0.00 0.00 0.00 0.00 0.00 0.00 0.00 0.00 0.00 0.00
0.02 0.05 0.10 0.11 0.06 0.02 0.01 0.01 0.00 0.00 0.00 0.00 0.00 0.00 0.00 0.00 0.00 0.00 0.00 0.00 0.00 0.00 0.00 0.00 0.00 0.00 0.00 0.00 0.00 0.00 0.00 0.00 0.00 0.00 0.00 0.00 0.00 0.00 0.00 0.00 0.00 0.00 0.00
0.00 0.02 0.04 0.04 0.02 0.00 0.00 0.00 0.00 0.00 0.00 0.00 0.00 0.00 0.00 0.00 0.00 0.00 0.00 0.00 0.00 0.00 0.00 0.00 0.00 0.00 0.00 0.00 0.00 0.00 0.00 0.00 0.00 0.00 0.00 0.00 0.00 0.00 0.00 0.00 0.00 0.00 0.00
MSLP
1007.80 1008.57 1009.11 1009.72 1010.39 1011.15 1011.62 1012.34 1013.02 1013.60 1014.18 1014.63 1014.98 1015.27 1015.59 1015.91 1016.18 1016.31 1016.58 1016.93 1017.15 1017.40 1017.56 1017.68 1017.96 1018.08 1017.83 1017.77 1017.66 1017.48 1017.27 1017.04 1016.53 1016.55 1016.94 1017.23 1017.17 1017.07 1016.85 1016.62 1016.25 1015.73 1015.84
1007.04 1007.84 1008.59 1009.48 1010.05 1010.53 1011.26 1012.12 1012.86 1013.35 1013.90 1014.39 1014.82 1015.21 1015.59 1015.95 1016.29 1016.50 1016.71 1017.08 1017.27 1017.41 1017.64 1017.92 1018.10 1018.17 1018.41 1018.49 1018.16 1018.18 1017.84 1017.71 1017.15 1017.15 1017.41 1017.19 1017.42 1017.36 1017.09 1016.77 1016.46 1016.35 1016.20
1006.67 1007.48 1008.20 1008.97 1009.49 1010.14 1010.88 1011.73 1012.66 1013.43 1014.21 1014.82 1015.24 1015.59 1015.87 1016.17 1016.43 1016.71 1016.96 1017.28 1017.58 1017.83 1017.95 1017.99 1018.32 1018.46 1018.44 1018.46 1018.45 1018.32 1018.34 1018.31 1018.04 1017.70 1017.51 1017.62 1017.53 1017.48 1017.16 1016.90 1016.75 1016.45 1015.96
1006.38 1007.15 1007.67 1008.03 1008.63 1009.56 1010.72 1011.51 1012.14 1013.12 1014.05 1014.59 1014.97 1015.48 1015.96 1016.23 1016.50 1016.79 1017.05 1017.29 1017.59 1017.87 1018.13 1018.21 1018.36 1018.44 1018.48 1018.51 1018.50 1018.63 1018.54 1018.31 1018.33 1017.94 1017.71 1017.63 1017.60 1017.59 1017.31 1017.05 1016.63 1016.50 1016.17
1005.94 1006.61 1007.02 1007.75 1008.74 1009.80 1010.99 1011.82 1012.56 1012.85 1013.52 1014.27 1014.87 1015.20 1015.56 1015.94 1016.48 1017.00 1017.26 1017.44 1017.66 1018.06 1018.27 1018.32 1018.40 1018.62 1018.79 1018.72 1018.48 1018.73 1018.78 1018.47 1018.35 1018.13 1017.81 1017.69 1017.55 1017.45 1017.41 1017.25 1016.82 1016.44 1016.02
1005.45 1006.15 1007.25 1008.09 1008.99 1009.93 1011.07 1012.03 1013.08 1013.16 1013.51 1014.02 1014.52 1015.19 1015.57 1015.91 1016.67 1017.09 1017.33 1017.60 1017.84 1017.78 1017.88 1018.30 1018.42 1018.62 1018.71 1018.88 1018.95 1018.98 1018.96 1018.71 1018.65 1018.51 1018.06 1018.03 1017.92 1017.80 1017.48 1017.29 1016.92 1016.52 1015.90
1005.71 1006.56 1007.62 1008.42 1009.33 1010.45 1011.62 1012.19 1012.93 1013.09 1013.80 1014.50 1014.97 1015.41 1016.05 1016.38 1016.73 1017.40 1017.87 1017.90 1017.97 1018.07 1018.15 1018.21 1018.14 1017.98 1018.49 1018.44 1018.62 1018.82 1018.88 1018.93 1018.85 1018.72 1018.44 1018.20 1017.97 1017.75 1017.75 1017.43 1017.10 1016.91 1016.28
1005.48 1006.74 1007.68 1008.34 1009.20 1010.20 1011.09 1012.37 1013.45 1013.20 1013.51 1014.23 1014.87 1015.32 1015.90 1016.67 1016.94 1017.38 1017.86 1018.20 1018.15 1018.39 1018.40 1018.46 1018.32 1018.31 1018.30 1018.32 1018.28 1018.36 1018.29 1018.15 1018.24 1018.21 1018.23 1018.07 1017.79 1017.56 1017.58 1017.30 1017.21 1016.95 1016.31
1005.90 1006.63 1007.27 1007.84 1008.40 1008.54 1008.16 1010.68 1012.86 1013.95 1014.32 1014.39 1014.98 1015.57 1016.11 1016.70 1016.97 1017.54 1017.78 1017.95 1018.16 1018.33 1018.44 1018.33 1018.25 1018.13 1018.29 1018.30 1018.19 1018.07 1017.93 1017.74 1017.65 1018.02 1018.03 1017.85 1017.63 1017.47 1017.43 1017.03 1016.44 1016.02 1015.28
1005.66 1006.17 1006.58 1006.46 1007.21 1008.32 1008.62 1009.64 1011.85 1013.29 1014.10 1014.86 1015.07 1015.53 1016.23 1016.73 1017.04 1017.52 1017.82 1017.69 1017.85 1017.90 1018.23 1018.17 1018.23 1018.24 1018.27 1018.16 1018.03 1017.96 1017.75 1017.37 1017.21 1016.99 1016.94 1016.52 1016.69 1016.37 1016.78 1016.57 1015.96 1015.64 1015.27
1006.92 1008.46 1008.05 1007.77 1009.30 1009.52 1010.14 1011.07 1012.06 1013.38 1014.11 1014.89 1015.09 1015.69 1016.09 1016.81 1017.30 1017.73 1017.91 1018.01 1017.58 1017.63 1017.58 1017.65 1017.88 1018.01 1018.05 1017.95 1017.92 1017.64 1017.29 1017.20 1017.01 1016.60 1016.08 1015.62 1015.33 1015.14 1015.17 1015.42 1015.75 1015.65 1015.12
1006.77 1005.86 1005.36 1009.11 1009.06 1010.45 1010.91 1011.42 1012.31 1013.46 1014.20 1014.61 1015.05 1015.37 1016.05 1016.31 1017.09 1017.56 1017.86 1018.13 1017.98 1017.74 1017.59 1017.63 1017.82 1018.01 1017.94 1017.72 1017.63 1017.31 1017.16 1017.03 1016.35 1015.75 1015.30 1014.84 1014.61 1014.56 1014.64 1014.99 1015.33 1015.32 1015.12
1005.53 1005.46 1005.86 1006.91 1008.28 1010.78 1010.84 1011.43 1012.65 1013.37 1013.86 1014.42 1014.57 1015.33 1015.91 1015.96 1016.74 1017.09 1017.60 1017.90 1017.84 1017.80 1017.52 1017.53 1017.64 1017.56 1017.54 1017.40 1017.07 1016.92 1016.83 1016.17 1015.58 1015.21 1014.77 1014.53 1014.53 1014.68 1015.03 1014.83 1014.82 1014.72 1014.35
1005.76 1006.52 1007.37 1007.39 1008.60 1009.75 1010.00 1011.12 1012.20 1012.62 1013.58 1014.36 1014.81 1015.23 1015.43 1015.83 1016.43 1016.66 1017.14 1017.38 1017.53 1017.48 1017.24 1017.04 1017.25 1017.14 1017.06 1016.98 1016.63 1016.18 1015.90 1015.58 1015.32 1015.00 1014.75 1014.66 1014.62 1014.48 1014.47 1014.40 1014.25 1014.20 1014.50
1005.96 1006.50 1007.22 1007.96 1008.73 1009.49 1010.61 1011.00 1011.65 1012.50 1012.99 1013.84 1014.21 1014.71 1014.93 1015.42 1015.52 1016.00 1016.33 1016.64 1016.75 1016.84 1017.19 1016.83 1016.35 1016.07 1015.84 1015.49 1015.40 1015.26 1015.10 1014.96 1014.80 1014.73 1014.63 1014.46 1014.25 1014.02 1013.97 1014.73 1015.01 1014.89 1014.50
1006.32 1006.73 1007.28 1007.99 1009.08 1009.65 1010.54 1011.82 1012.50 1012.52 1013.18 1013.63 1013.94 1014.53 1015.06 1015.34 1015.65 1016.04 1016.42 1016.73 1016.88 1017.02 1016.80 1016.26 1015.67 1015.40 1015.26 1015.02 1014.83 1014.66 1014.48 1014.67 1014.64 1014.70 1014.47 1014.33 1014.29 1014.67 1014.97 1014.98 1014.80 1014.45 1013.90
1006.13 1007.01 1007.71 1008.35 1009.12 1009.63 1010.36 1011.11 1011.99 1013.29 1013.60 1013.74 1013.99 1014.74 1015.03 1015.49 1015.86 1016.07 1016.31 1016.54 1016.80 1017.07 1016.61 1015.83 1015.35 1015.04 1014.81 1014.67 1014.51 1014.40 1014.25 1014.49 1015.09 1014.54 1014.44 1014.84 1015.20 1015.06 1015.00 1014.47 1014.17 1014.29 1014.31
1006.07 1006.84 1007.57 1008.16 1008.62 1008.93 1009.78 1010.56 1011.29 1012.19 1013.32 1014.13 1014.45 1014.81 1015.23 1015.43 1015.86 1016.18 1016.23 1016.35 1016.20 1016.48 1016.10 1015.47 1015.05 1014.70 1014.51 1014.42 1014.32 1014.24 1014.29 1014.68 1014.57 1014.47 1014.97 1015.17 1015.17 1015.05 1014.63 1014.43 1014.39 1014.51 1014.64
1006.35 1006.90 1007.40 1007.95 1008.36 1008.63 1009.54 1010.40 1011.01 1011.97 1012.69 1013.42 1013.97 1014.62 1015.14 1014.95 1015.46 1015.90 1016.09 1015.77 1015.25 1015.10 1015.10 1015.01 1014.69 1014.43 1014.34 1014.33 1014.29 1014.45 1014.67 1014.54 1014.80 1015.00 1015.12 1015.20 1015.22 1015.35 1015.02 1014.51 1014.25 1014.63 1014.64
1006.66 1007.04 1007.38 1008.07 1008.46 1008.83 1009.48 1010.09 1011.04 1011.59 1012.33 1012.94 1013.08 1013.47 1014.03 1014.74 1014.83 1014.87 1014.84 1014.95 1014.79 1014.79 1014.77 1014.77 1014.62 1014.56 1014.52 1014.50 1014.49 1014.56 1014.45 1014.42 1014.78 1014.99 1015.25 1015.29 1015.06 1015.13 1014.88 1014.62 1014.48 1014.43 1014.22
1006.52 1007.00 1007.39 1007.85 1008.09 1008.53 1009.18 1009.70 1010.70 1011.39 1011.95 1012.42 1012.60 1013.26 1013.44 1013.71 1013.56 1013.79 1013.99 1014.16 1014.35 1014.44 1014.70 1014.70 1014.59 1014.57 1014.45 1014.44 1014.58 1014.46 1014.50 1015.05 1015.12 1015.07 1014.95 1014.87 1014.85 1015.04 1015.09 1015.02 1014.72 1014.39 1013.94
1006.42 1006.82 1007.11 1007.44 1008.01 1008.79 1009.22 1009.82 1010.68 1011.31 1011.79 1011.91 1012.25 1012.82 1013.77 1013.44 1013.12 1013.39 1013.78 1014.09 1014.32 1014.57 1014.78 1014.75 1014.49 1014.54 1014.50 1014.52 1014.61 1014.81 1015.29 1015.25 1015.00 1014.65 1014.55 1014.79 1014.74 1014.58 1014.78 1014.62 1014.38 1014.00 1013.53
1006.42 1006.74 1007.27 1007.70 1008.10 1008.76 1009.49 1010.02 1010.69 1011.04 1011.40 1011.62 1011.88 1012.36 1012.62 1012.70 1012.85 1013.23 1013.78 1014.18 1014.38 1014.56 1014.73 1014.56 1014.61 1014.45 1014.32 1014.36 1014.55 1015.36 1015.42 1015.16 1014.78 1014.54 1014.44 1014.36 1014.35 1014.63 1014.65 1014.22 1013.78 1013.41 1012.91
1006.36 1006.81 1007.33 1007.90 1008.38 1008.89 1009.65 1010.18 1010.60 1011.07 1011.16 1011.46 1011.67 1011.91 1012.30 1012.62 1012.80 1013.46 1013.89 1014.22 1014.35 1014.60 1014.60 1014.59 1014.55 1014.53 1014.49 1014.39 1014.71 1015.14 1015.23 1015.11 1014.62 1014.46 1014.49 1014.23 1014.12 1014.34 1014.31 1013.53 1013.01 1012.67 1012.28
1006.29 1006.88 1007.53 1008.09 1008.31 1008.88 1009.68 1010.22 1010.73 1010.70 1011.01 1011.23 1011.51 1011.94 1012.30 1012.60 1013.13 1013.61 1013.96 1014.18 1014.41 1014.51 1014.61 1014.59 1014.49 1014.49 1014.47 1014.78 1014.88 1015.13 1015.22 1015.27 1015.05 1015.12 1014.47 1014.18 1014.28 1014.12 1013.61 1012.92 1012.30 1011.84 1011.49
1006.59 1007.14 1007.77 1008.11 1008.63 1008.92 1009.64 1010.21 1010.38 1010.37 1010.69 1011.04 1011.53 1011.98 1012.20 1012.67 1013.10 1013.46 1013.84 1014.13 1014.31 1014.45 1014.53 1014.42 1014.50 1014.61 1014.73 1014.89 1015.13 1015.29 1015.20 1015.27 1015.12 1015.32 1014.84 1014.43 1014.25 1013.71 1012.81 1012.01 1011.59 1011.34 1010.75
Thickness
5827 5820 5816 5812 5807 5801 5796 5788 5781 5776 5770 5766 5762 5758 5753 5748 5744 5741 5736 5731 5726 5721 5717 5713 5708 5705 5705 5704 5702 5702 5701 5700 5699 5700 5696 5692 5690 5689 5689 5690 5692 5695 5694
5832 5825 5818 5812 5807 5803 5795 5788 5780 5775 5771 5765 5760 5754 5748 5743 5738 5733 5728 5722 5718 5713 5708 5703 5699 5696 5691 5688 5689 5687 5687 5687 5690 5684 5682 5684 5680 5677 5677 5678 5678 5680 5680
5834 5826 5819 5812 5807 5801 5795 5788 5779 5771 5763 5756 5751 5746 5741 5736 5732 5727 5721 5715 5709 5703 5699 5695 5690 5685 5681 5680 5678 5676 5674 5672 5671 5671 5670 5669 5668 5665 5665 5665 5665 5667 5669
5833 5826 5821 5818 5813 5804 5794 5787 5782 5771 5760 5754 5750 5742 5735 5731 5726 5721 5715 5709 5702 5694 5689 5686 5681 5677 5673 5671 5668 5665 5664 5662 5658 5659 5658 5656 5653 5652 5652 5650 5652 5653 5655
5833 5827 5824 5818 5809 5799 5787 5780 5773 5769 5762 5753 5746 5741 5735 5729 5720 5712 5707 5701 5694 5685 5679 5676 5673 5668 5662 5660 5660 5653 5650 5650 5647 5645 5645 5643 5641 5638 5635 5635 5635 5636 5638
5834 5827 5818 5810 5801 5791 5780 5768 5759 5758 5756 5750 5743 5735 5729 5724 5711 5704 5699 5692 5686 5683 5676 5668 5664 5658 5654 5649 5645 5641 5638 5636 5633 5629 5629 5623 5621 5619 5619 5617 5618 5618 5619
5826 5819 5808 5799 5789 5777 5764 5752 5750 5751 5745 5737 5730 5724 5716 5711 5704 5694 5687 5683 5677 5672 5667 5662 5658 5657 5648 5645 5639 5633 5628 5623 5619 5615 5612 5610 5607 5607 5603 5603 5604 5602 5605
5823 5810 5801 5793 5783 5773 5762 5749 5737 5742 5740 5730 5722 5716 5708 5699 5696 5689 5681 5674 5669 5662 5658 5652 5649 5645 5642 5637 5634 5628 5623 5618 5612 5608 5602 5600 5598 5598 5595 5594 5592 5591 5595
5814 5807 5799 5791 5785 5781 5776 5748 5731 5721 5718 5720 5714 5704 5697 5690 5686 5680 5674 5670 5662 5655 5650 5646 5643 5640 5633 5628 5624 5618 5613 5609 5606 5600 5596 5593 5591 5589 5586 5586 5588 5590 5592
5809 5803 5799 5794 5786 5773 5768 5755 5734 5719 5709 5705 5701 5696 5688 5683 5679 5672 5667 5665 5657 5652 5645 5642 5636 5631 5624 5621 5617 5609 5603 5602 5599 5597 5594 5593 5589 5589 5584 5581 5583 5582 5583
5790 5768 5727 5749 5749 5747 5746 5737 5726 5712 5704 5696 5694 5686 5678 5676 5669 5661 5657 5654 5653 5647 5642 5637 5631 5623 5616 5612 5605 5602 5599 5594 5590 5590 5590 5591 5590 5589 5586 5580 5575 5574 5576
5782 5777 5756 5727 5724 5725 5728 5726 5717 5706 5696 5691 5685 5679 5672 5670 5664 5656 5650 5643 5640 5638 5635 5630 5623 5614 5608 5605 5600 5599 5594 5588 5590 5590 5589 5589 5588 5584 5581 5574 5568 5565 5564
5787 5781 5776 5750 5736 5719 5720 5717 5706 5699 5693 5686 5684 5674 5667 5668 5660 5653 5644 5637 5634 5632 5630 5624 5615 5610 5604 5599 5595 5592 5588 5590 5590 5589 5588 5587 5584 5579 5571 5569 5564 5562 5562
5778 5768 5754 5753 5737 5725 5721 5712 5702 5699 5689 5679 5675 5669 5666 5662 5656 5653 5644 5638 5631 5628 5625 5622 5612 5606 5599 5594 5593 5593 5590 5588 5585 5584 5582 5579 5576 5573 5570 5567 5564 5560 5552
5769 5763 5756 5746 5734 5725 5713 5709 5704 5695 5690 5679 5674 5668 5664 5656 5657 5651 5646 5640 5635 5628 5617 5616 5613 5609 5603 5601 5597 5593 5590 5587 5584 5580 5576 5574 5572 5571 5567 5557 5550 5547 5545
5756 5751 5745 5738 5727 5720 5709 5698 5686 5687 5678 5675 5672 5665 5659 5653 5648 5643 5638 5632 5625 5617 5614 5613 5611 5607 5602 5599 5595 5591 5588 5583 5579 5574 5572 5570 5567 5558 5551 5548 5546 5545 5546
5748 5738 5731 5725 5716 5710 5704 5697 5687 5673 5667 5666 5663 5654 5653 5648 5641 5637 5633 5627 5618 5610 5612 5612 5609 5605 5601 5597 5593 5589 5585 5579 5570 5571 5567 5560 5552 5550 5547 5549 5548 5541 5534
5739 5729 5725 5719 5714 5711 5702 5694 5687 5678 5666 5660 5652 5651 5644 5640 5635 5629 5626 5622 5623 5613 5610 5609 5606 5603 5599 5594 5590 5586 5581 5573 5570 5566 5558 5552 5549 5547 5548 5545 5540 5531 5522
5724 5720 5717 5712 5709 5706 5697 5688 5682 5672 5665 5658 5653 5647 5640 5640 5633 5625 5620 5623 5625 5621 5614 5607 5605 5601 5596 5592 5586 5580 5573 5570 5563 5557 5552 5548 5545 5539 5539 5539 5535 5522 5514
5712 5706 5705 5701 5699 5695 5689 5683 5673 5668 5661 5655 5656 5651 5647 5640 5636 5634 5630 5625 5622 5616 5610 5605 5602 5597 5591 5586 5581 5575 5572 5568 5561 5554 5547 5543 5542 5538 5535 5532 5528 5519 5513
5702 5699 5696 5695 5693 5690 5684 5680 5670 5663 5659 5655 5653 5647 5646 5643 5641 5637 5631 5626 5620 5614 5607 5602 5598 5593 5588 5583 5576 5573 5568 5559 5554 5549 5546 5543 5540 5533 5528 5522 5518 5513 5509
5695 5693 5693 5691 5687 5678 5675 5671 5662 5659 5655 5654 5650 5646 5634 5638 5639 5634 5627 5621 5616 5609 5602 5598 5596 5590 5585 5578 5572 5566 5556 5552 5551 5549 5545 5539 5536 5533 5526 5521 5515 5512 5508
5686 5685 5682 5680 5676 5670 5666 5662 5658 5657 5653 5651 5650 5646 5642 5639 5635 5629 5622 5616 5611 5605 5599 5596 5591 5587 5582 5575 5568 5557 5551 5549 5548 5546 5542 5539 5535 5528 5523 5521 5517 5513 5510
5680 5676 5674 5670 5665 5663 5658 5654 5653 5649 5649 5647 5647 5644 5639 5634 5632 5623 5617 5612 5607 5601 5597 5592 5588 5583 5576 5571 5563 5555 5549 5544 5544 5542 5537 5535 5533 5527 5522 5524 5522 5517 5512
5674 5670 5666 5661 5658 5655 5651 5648 5646 5648 5646 5644 5643 5637 5634 5631 5624 5618 5613 5608 5603 5598 5593 5588 5584 5578 5572 5564 5558 5551 5546 5541 5538 5536 5534 5532 5528 5525 5525 5526 5524 5523 5518
5666 5661 5656 5653 5651 5654 5648 5645 5645 5646 5644 5642 5637 5633 5632 5626 5621 5616 5610 5605 5600 5595 5590 5585 5579 5573 5567 5561 5554 5548 5544 5539 5535 5532 5530 5528 5526 5527 5530 5532 5528 5523 5523